Regional Weather Roundup
Issued by NWS

Home | Current Version | Previous Version | Text Only | Print | Product List | Glossary Off
Versions: 1 2 3 4 5 6 7 8 9 10 11 12 13 14 15 16 17 18 19 20 21 22 23 24 25 26 27 28 29 30 31 32 33 34 35 36 37 38 39 40 41 42 43 44 45 46 47 48 49 50

464
ASUS44 KLIX 290305
RWRLA
LOUISIANA WEATHER ROUNDUP
NATIONAL WEATHER SERVICE NEW ORLEANS LA
1000 PM CDT THU AUG 28 2014

NOTE: "FAIR" INDICATES FEW OR NO CLOUDS BELOW 12,000 FEET WITH NO
      SIGNIFICANT WEATHER AND/OR OBSTRUCTIONS TO VISIBILITY.
      SKY/WX - SKY CONDITION AND SIGNIFICANT WEATHER.
      TMP - AIR TEMPERATURE.    DP   - DEWPOINT TEMPERATURE.
      RH  - RELATIVE HUMIDITY.  PRES - PRESSURE.
      HX  - HEAT INDEX.         WCI  - WIND CHILL INDEX.

*  THESE STATIONS ARE NOT NWS OR FAA STATIONS AND ARE NOT UNDER
   NWS QUALITY CONTROL.

LAZ040-048-061>063-065-066-069-290400-
SOUTHEAST LOUISIANA

CITY           SKY/WX    TMP DP  RH WIND       PRES   REMARKS
N.O. AUDUBON     N/A     85  73  67 MISG        N/A
N.O. INTL ARPT PTCLDY    83  73  72 SE8       29.96R
N.O. LAKEFRONT PTCLDY    82  74  76 SE9       29.97R
N.O. DOWNTOWN* FAIR      82  72  69 SE6       29.98R
SLIDELL        PTCLDY    77  73  87 CALM      29.96R
BATON ROUGE    CLOUDY    80  75  84 E6        29.96R
BOOTHVILLE     CLEAR     82  75  79 E5        29.98R
BELLE CHASSE   PTCLDY    83  72  69 SE5       29.96R
BOGALUSA*      FAIR      82  73  73 S5        29.99R
GALLIANO*      NOT AVBL
NEW ROADS*     FAIR      81  75  84 SE5       29.95R
GONZALES*      FAIR      81  76  83 CALM      29.95S
HAMMOND*       MOCLDY    81  72  74 E6        29.98R
HOUMA*         PTCLDY    77  72  83 CALM      29.96R
PORT FOURCHON* CLEAR     84  73  70 SE13      29.97S

$$

LAZ041-044-053-054-290400-
SOUTHWEST LOUISIANA

CITY           SKY/WX    TMP DP  RH WIND       PRES   REMARKS
LAKE CHARLES   PTCLDY    78  75  90 SE3       29.93R
LAFAYETTE      MOCLDY    79  77  94 CALM      29.95R
PATTERSON        N/A     79  75  89 CALM      29.98R
SALT POINT       N/A     85  76  74 SE6       29.94R
NEW IBERIA     MOCLDY    80  77  90 CALM      29.95R
CHENAULT AIRPK CLEAR     77  73  85 SE5       29.94S

$$

LAZ027-028-290400-
CENTRAL LOUISIANA

CITY           SKY/WX    TMP DP  RH WIND       PRES   REMARKS
FORT POLK      CLEAR     78  72  81 CALM      29.94R
ALEXANDRIA INT PTCLDY    76  73  91 SE5       29.93R
ALEXANDRIA     CLEAR     77  74  90 CALM      29.95R

$$

LAZ001-002-290400-
NORTHWEST LOUISIANA

CITY           SKY/WX    TMP DP  RH WIND       PRES   REMARKS
SHREVEPORT     PTCLDY    81  69  67 S7        29.92R
BARKSDALE AFB  CLEAR     80  70  72 S5        29.93R
DTN SHREVEPORT CLEAR     78  73  84 SE3       29.93R

$$

LAZ014-016-290400-
NORTHEAST LOUISIANA

CITY           SKY/WX    TMP DP  RH WIND       PRES   REMARKS
MONROE         CLEAR     78  71  79 CALM      29.95R
TALLULAH       CLEAR     75  72  90 CALM      29.95R

$$




USA.gov is the U.S. government's official web portal to all federal, state and local government web resources and services.